• In United Kingdom
  • List of Countries
  • For 7 days
  • Water Temperature
  • Satellite Maps
  • Weather Map
  • Weather Widgets
  • user-avatar
    Login

    Hourly Weather Gjirokaster

    Today, 20 September, Wednesday

    Time Temperature Precipitation Wind Pressure Humidity
    00:00 +13°C° 0 mm 1 mps 649 mmHg 79%
    01:00 +12°C° 0 mm 1 mps 649 mmHg 82%
    02:00 +12°C° 0.1 mm 2 mps 649 mmHg 84%
    03:00 +12°C° 0.1 mm 2 mps 649 mmHg 86%
    04:00 +10°C° 0.1 mm 2 mps 649 mmHg 88%
    05:00 +12°C° 0.1 mm 2 mps 649 mmHg 85%
    06:00 +13°C° 0.1 mm 2 mps 649 mmHg 82%
    07:00 +13°C° 0.1 mm 2 mps 649 mmHg 79%
    08:00 +15°C° 0.2 mm 2 mps 650 mmHg 70%
    09:00 +16°C° 0.2 mm 3 mps 650 mmHg 61%
    10:00 +17°C° 0.2 mm 3 mps 650 mmHg 52%
    11:00 +17°C° 0 mm 3 mps 651 mmHg 48%
    12:00 +17°C° 0 mm 4 mps 651 mmHg 44%
    13:00 +18°C° 0 mm 4 mps 651 mmHg 39%
    14:00 +17°C° 0.1 mm 4 mps 650 mmHg 42%
    15:00 +15°C° 0.1 mm 4 mps 650 mmHg 45%
    16:00 +14°C° 0.1 mm 4 mps 650 mmHg 47%
    17:00 +13°C° 0.3 mm 3 mps 650 mmHg 56%
    18:00 +11°C° 0.3 mm 3 mps 650 mmHg 65%
    19:00 +9°C° 0.3 mm 2 mps 650 mmHg 73%
    20:00 +9°C° 0.1 mm 2 mps 650 mmHg 76%
    21:00 +8°C° 0.1 mm 2 mps 650 mmHg 78%
    22:00 +8°C° 0.1 mm 2 mps 650 mmHg 80%
    23:00 +8°C° 0.1 mm 2 mps 650 mmHg 82%

    Tomorrow, 21 September, Thursday

    Time Temperature Precipitation Wind Pressure Humidity
    00:00 +7°C° 0.1 mm 3 mps 650 mmHg 84%
    01:00 +7°C° 0.1 mm 3 mps 650 mmHg 86%
    02:00 +7°C° 0.1 mm 3 mps 650 mmHg 86%
    03:00 +7°C° 0.1 mm 3 mps 650 mmHg 86%
    04:00 +7°C° 0.1 mm 3 mps 650 mmHg 86%
    05:00 +7°C° 0.2 mm 3 mps 650 mmHg 83%
    06:00 +8°C° 0.2 mm 3 mps 650 mmHg 81%
    07:00 +9°C° 0.2 mm 3 mps 651 mmHg 78%
    08:00 +10°C° 0.2 mm 3 mps 651 mmHg 72%
    09:00 +10°C° 0.2 mm 4 mps 651 mmHg 67%
    10:00 +11°C° 0.2 mm 4 mps 652 mmHg 61%
    11:00 +12°C° 0.3 mm 4 mps 652 mmHg 59%
    12:00 +12°C° 0.3 mm 5 mps 652 mmHg 57%
    13:00 +13°C° 0.3 mm 5 mps 652 mmHg 56%
    14:00 +11°C° 0.1 mm 6 mps 652 mmHg 56%
    15:00 +11°C° 0.1 mm 6 mps 652 mmHg 57%
    16:00 +11°C° 0.1 mm 6 mps 652 mmHg 57%
    17:00 +9°C° 0 mm 6 mps 652 mmHg 63%
    18:00 +8°C° 0 mm 5 mps 652 mmHg 69%
    19:00 +6°C° 0 mm 4 mps 652 mmHg 75%
    20:00 +6°C° 0 mm 4 mps 652 mmHg 77%
    21:00 +5°C° 0 mm 3 mps 652 mmHg 79%
    22:00 +5°C° 0 mm 3 mps 652 mmHg 81%
    23:00 +5°C° 0 mm 3 mps 653 mmHg 80%

    Day after tomorrow, 22 September, Friday

    Time Temperature Precipitation Wind Pressure Humidity
    00:00 +4°C° 0 mm 3 mps 653 mmHg 80%
    01:00 +5°C° 0 mm 2 mps 653 mmHg 79%
    02:00 +5°C° 0 mm 2 mps 653 mmHg 78%
    03:00 +4°C° 0 mm 3 mps 653 mmHg 78%
    04:00 +4°C° 0 mm 3 mps 653 mmHg 77%
    05:00 +5°C° 0 mm 3 mps 653 mmHg 72%
    06:00 +7°C° 0 mm 2 mps 653 mmHg 68%
    07:00 +8°C° 0 mm 2 mps 654 mmHg 63%
    08:00 +10°C° 0 mm 3 mps 654 mmHg 54%
    09:00 +11°C° 0 mm 3 mps 655 mmHg 46%
    10:00 +13°C° 0 mm 4 mps 655 mmHg 37%
    11:00 +14°C° 0 mm 4 mps 655 mmHg 35%
    12:00 +15°C° 0 mm 5 mps 655 mmHg 34%
    13:00 +15°C° 0 mm 5 mps 655 mmHg 33%
    14:00 +15°C° 0 mm 5 mps 655 mmHg 35%
    15:00 +14°C° 0 mm 5 mps 655 mmHg 37%
    16:00 +14°C° 0 mm 5 mps 655 mmHg 40%
    17:00 +12°C° 0 mm 5 mps 655 mmHg 46%
    18:00 +10°C° 0 mm 4 mps 655 mmHg 52%
    19:00 +8°C° 0 mm 3 mps 655 mmHg 57%
    20:00 +8°C° 0 mm 3 mps 655 mmHg 58%
    21:00 +7°C° 0 mm 3 mps 655 mmHg 60%
    22:00 +7°C° 0 mm 2 mps 655 mmHg 61%
    23:00 +7°C° 0 mm 2 mps 655 mmHg 60%

    23 September, Saturday

    Time Temperature Precipitation Wind Pressure Humidity
    00:00 +6°C° 0 mm 2 mps 655 mmHg 59%
    01:00 +6°C° 0 mm 2 mps 655 mmHg 58%
    02:00 +6°C° 0 mm 2 mps 654 mmHg 59%
    03:00 +6°C° 0 mm 2 mps 654 mmHg 59%
    04:00 +6°C° 0 mm 2 mps 654 mmHg 59%
    05:00 +7°C° 0 mm 2 mps 655 mmHg 57%
    06:00 +8°C° 0 mm 2 mps 655 mmHg 55%
    07:00 +9°C° 0 mm 2 mps 655 mmHg 53%
    08:00 +12°C° 0 mm 2 mps 656 mmHg 47%
    09:00 +14°C° 0 mm 2 mps 656 mmHg 41%
    10:00 +17°C° 0 mm 2 mps 657 mmHg 35%
    11:00 +17°C° 0 mm 3 mps 656 mmHg 34%
    12:00 +18°C° 0 mm 3 mps 656 mmHg 33%
    13:00 +18°C° 0 mm 4 mps 656 mmHg 32%
    14:00 +18°C° 0 mm 4 mps 656 mmHg 35%
    15:00 +17°C° 0 mm 4 mps 656 mmHg 37%
    16:00 +17°C° 0 mm 4 mps 655 mmHg 40%
    17:00 +14°C° 0 mm 4 mps 655 mmHg 46%
    18:00 +12°C° 0 mm 3 mps 655 mmHg 53%
    19:00 +10°C° 0 mm 3 mps 655 mmHg 59%
    20:00 +9°C° 0 mm 3 mps 654 mmHg 60%
    21:00 +9°C° 0 mm 2 mps 654 mmHg 61%
    22:00 +8°C° 0 mm 2 mps 654 mmHg 62%
    23:00 +8°C° 0 mm 2 mps 654 mmHg 62%

    24 September, Sunday

    Time Temperature Precipitation Wind Pressure Humidity
    00:00 +8°C° 0 mm 2 mps 654 mmHg 62%
    01:00 +8°C° 0 mm 2 mps 654 mmHg 62%
    02:00 +7°C° 0 mm 2 mps 653 mmHg 62%
    03:00 +7°C° 0 mm 2 mps 653 mmHg 62%
    04:00 +7°C° 0 mm 2 mps 653 mmHg 62%
    05:00 +8°C° 0 mm 2 mps 653 mmHg 59%
    06:00 +9°C° 0 mm 2 mps 654 mmHg 57%
    07:00 +10°C° 0 mm 2 mps 654 mmHg 54%
    08:00 +13°C° 0 mm 2 mps 654 mmHg 47%
    09:00 +16°C° 0 mm 1 mps 655 mmHg 41%
    10:00 +19°C° 0 mm 1 mps 655 mmHg 34%
    11:00 +18°C° 0 mm 2 mps 655 mmHg 33%
    12:00 +19°C° 0 mm 3 mps 655 mmHg 32%
    13:00 +19°C° 0 mm 4 mps 655 mmHg 31%
    14:00 +19°C° 0 mm 3 mps 655 mmHg 34%
    15:00 +18°C° 0 mm 3 mps 654 mmHg 36%
    16:00 +18°C° 0 mm 3 mps 654 mmHg 39%
    17:00 +16°C° 0 mm 3 mps 654 mmHg 45%
    18:00 +13°C° 0 mm 3 mps 654 mmHg 51%
    19:00 +12°C° 0 mm 2 mps 653 mmHg 57%
    20:00 +12°C° 0 mm 2 mps 653 mmHg 58%
    21:00 +10°C° 0 mm 2 mps 653 mmHg 59%
    22:00 +10°C° 0 mm 2 mps 653 mmHg 60%
    23:00 +10°C° 0 mm 2 mps 653 mmHg 59%

    25 September, Monday

    Time Temperature Precipitation Wind Pressure Humidity
    00:00 +9°C° 0 mm 2 mps 653 mmHg 59%
    01:00 +9°C° 0 mm 2 mps 653 mmHg 59%
    02:00 +9°C° 0 mm 2 mps 653 mmHg 58%
    03:00 +9°C° 0 mm 2 mps 652 mmHg 58%
    04:00 +9°C° 0 mm 2 mps 652 mmHg 57%
    05:00 +9°C° 0 mm 2 mps 652 mmHg 55%
    06:00 +10°C° 0 mm 2 mps 653 mmHg 53%
    07:00 +12°C° 0 mm 2 mps 653 mmHg 52%
    08:00 +14°C° 0 mm 2 mps 653 mmHg 46%
    09:00 +16°C° 0 mm 1 mps 654 mmHg 41%
    10:00 +19°C° 0 mm 1 mps 655 mmHg 36%
    11:00 +20°C° 0 mm 1 mps 654 mmHg 35%
    12:00 +19°C° 0 mm 2 mps 654 mmHg 34%
    13:00 +20°C° 0 mm 2 mps 654 mmHg 34%
    14:00 +19°C° 0 mm 2 mps 654 mmHg 38%
    15:00 +18°C° 0 mm 2 mps 654 mmHg 42%
    16:00 +17°C° 0 mm 2 mps 653 mmHg 47%
    17:00 +16°C° 0.1 mm 2 mps 653 mmHg 52%
    18:00 +15°C° 0.1 mm 2 mps 653 mmHg 57%
    19:00 +13°C° 0.1 mm 2 mps 653 mmHg 62%
    20:00 +13°C° 0.3 mm 2 mps 653 mmHg 66%
    21:00 +11°C° 0.3 mm 3 mps 653 mmHg 70%
    22:00 +11°C° 0.3 mm 3 mps 653 mmHg 74%
    23:00 +11°C° 0.6 mm 3 mps 653 mmHg 76%
    Show more